,�O�C���x,�����t���O,�O�C���x,�����t���O,�󒲎����x,�����t���O,�󒲎����x,�����t���O,��󒲎����x,�����t���O,����,�����t���O
2004/8/1 0:00,27.9,0,83,0,27.8,0,51.3,0,30.6,0,28.2,0
2004/8/1 0:15,27.8,0,84,0,27.7,0,51.3,0,30.5,0,28.2,0
2004/8/1 0:30,27.8,0,84,0,27.8,0,51.7,0,30.5,0,28.2,0
2004/8/1 0:45,26.7,0,90,0,27.9,0,51.5,0,30.5,0,28.2,0
2004/8/1 1:00,26.8,0,94,0,27.9,0,51.4,0,30.5,0,28.2,0
2004/8/1 1:15,27.1,0,94,0,27.9,0,51,0,30.4,0,28.2,0
2004/8/1 1:30,27.2,0,93,0,27.9,0,50.8,0,30.4,0,28.2,0
2004/8/1 1:45,25.9,0,98,0,27.9,0,50.9,0,30.4,0,28.1,0
2004/8/1 2:00,25.5,0,99,0,27.9,0,50.7,0,30.3,0,28.1,0
2004/8/1 2:15,25.8,0,99,0,27.8,0,50.3,0,30.3,0,28.1,0
2004/8/1 2:30,25.5,0,99,0,27.8,0,50.3,0,30.2,0,28,0
2004/8/1 2:45,25.8,0,99,0,28,0,51.1,0,30.2,0,27.9,0
2004/8/1 3:00,26.5,0,99,0,28.3,0,53.7,0,30.1,0,28,0
2004/8/1 3:15,26.8,0,98,0,28.5,0,54.9,0,30.1,0,28,0
2004/8/1 3:30,26.9,0,96,0,28.5,0,55.9,0,30,0,27.9,0
2004/8/1 3:45,26.9,0,95,0,28.6,0,57.4,0,30,0,27.9,0
2004/8/1 4:00,26.8,0,95,0,28.7,0,58,0,30,0,28,0
2004/8/1 4:15,25.6,0,99,0,28.7,0,58,0,30,0,28,0
2004/8/1 4:30,25.6,0,99,0,28.8,0,58.3,0,29.9,0,28,0
2004/8/1 4:45,25.8,0,99,0,28.8,0,58.8,0,29.9,0,28,0
2004/8/1 5:00,25.8,0,99,0,28.9,0,59,0,29.9,0,28,0
2004/8/1 5:15,25.5,0,99,0,28.9,0,59,0,29.9,0,28,0
2004/8/1 5:30,25.5,0,99,0,28.9,0,58.8,0,29.9,0,28,0
2004/8/1 5:45,25.4,0,99,0,28.9,0,59.2,0,29.9,0,28,0
2004/8/1 6:00,25.3,0,99,0,29,0,59.4,0,29.8,0,28,0
2004/8/1 6:15,25.1,0,99,0,29,0,59.5,0,29.8,0,28,0
2004/8/1 6:30,25.1,0,99,0,29,0,59.5,0,29.8,0,28.1,0
2004/8/1 6:45,25.2,0,99,0,29,0,59.5,0,29.8,0,28.1,0
2004/8/1 7:00,25.2,0,99,0,29.1,0,59.7,0,29.7,0,28.1,0
2004/8/1 7:15,25.3,0,99,0,29.1,0,60,0,29.7,0,28.1,0
2004/8/1 7:30,25.2,0,99,0,29.1,0,59.8,0,29.7,0,28.1,0
2004/8/1 7:45,25.3,0,99,0,29.1,0,60,0,29.7,0,28.1,0
2004/8/1 8:00,25.4,0,99,0,29.1,0,60,0,29.7,0,28.1,0
2004/8/1 8:15,25.2,0,99,0,29.1,0,59.9,0,29.7,0,28.1,0
2004/8/1 8:30,25.2,0,99,0,29.2,0,59.9,0,29.6,0,28.1,0
2004/8/1 8:45,25.3,0,99,0,29.2,0,59.9,0,29.6,0,28.1,0
2004/8/1 9:00,25.5,0,99,0,29.2,0,59.9,0,29.6,0,28.1,0
2004/8/1 9:15,25.1,0,99,0,29.2,0,59.9,0,29.6,0,28.1,0
2004/8/1 9:30,25,0,99,0,29.2,0,59.9,0,29.6,0,28.1,0
2004/8/1 9:45,25,0,99,0,29.2,0,60,0,29.5,0,28.2,0
2004/8/1 10:00,25.1,0,99,0,29.2,0,60.4,0,29.5,0,28.2,0
2004/8/1 10:15,25.6,0,99,0,29.2,0,60.3,0,29.5,0,28.2,0
2004/8/1 10:30,25.9,0,97,0,29.3,0,60.3,0,29.5,0,28.2,0
2004/8/1 10:45,25.9,0,97,0,29.3,0,60.4,0,29.5,0,28.2,0
2004/8/1 11:00,26.3,0,93,0,29.3,0,60.4,0,29.4,0,28.2,0
2004/8/1 11:15,26.6,0,90,0,29.3,0,60.4,0,29.4,0,28.2,0
2004/8/1 11:30,26.8,0,89,0,29.3,0,60.4,0,29.4,0,28.2,0
2004/8/1 11:45,27,0,90,0,29.3,0,60.6,0,29.4,0,28.2,0
2004/8/1 12:00,27,0,89,0,29.3,0,60.4,0,29.4,0,28.2,0
2004/8/1 12:15,27.2,0,86,0,29.4,0,60.4,0,29.4,0,28.2,0
2004/8/1 12:30,26.9,0,89,0,29.4,0,60.4,0,29.4,0,28.2,0
2004/8/1 12:45,26.5,0,91,0,29.4,0,60.4,0,29.4,0,28.2,0
2004/8/1 13:00,26.9,0,87,0,29.4,0,60.4,0,29.4,0,28.2,0
2004/8/1 13:15,27.7,0,83,0,29.4,0,60.4,0,29.4,0,28.2,0
2004/8/1 13:30,27.8,0,81,0,29.4,0,60.4,0,29.4,0,28.2,0
2004/8/1 13:45,27.8,0,81,0,29.5,0,60.4,0,29.4,0,28.2,0
2004/8/1 14:00,28,0,80,0,29.5,0,60.3,0,29.4,0,28.2,0
2004/8/1 14:15,28.1,0,81,0,29.5,0,60.7,0,29.5,0,28.2,0
2004/8/1 14:30,28.2,0,84,0,29.4,0,59.2,0,29.5,0,28.2,0
2004/8/1 14:45,28.6,0,78,0,29.2,0,54.4,0,29.5,0,27.6,0
2004/8/1 15:00,28.2,0,79,0,28.8,0,52.1,0,29.5,0,27.6,0
2004/8/1 15:15,28,0,84,0,28.6,0,50.1,0,29.5,0,27.6,0
2004/8/1 15:30,27.4,0,91,0,28.4,0,50.5,0,29.6,0,27.5,0
2004/8/1 15:45,26.9,0,95,0,28.4,0,51.9,0,29.6,0,27.5,0
2004/8/1 16:00,26.6,0,97,0,28.3,0,52.7,0,29.6,0,27.5,0
2004/8/1 16:15,27.1,0,94,0,28.3,0,52.7,0,29.6,0,27.5,0
2004/8/1 16:30,27.4,0,92,0,28.2,0,52.6,0,29.6,0,27.5,0
2004/8/1 16:45,27.2,0,90,0,28.2,0,52.7,0,29.6,0,27.5,0
2004/8/1 17:00,27,0,91,0,28.1,0,52.8,0,29.5,0,27.5,0
2004/8/1 17:15,26.9,0,93,0,28.1,0,53.2,0,29.4,0,27.6,0
2004/8/1 17:30,27,0,94,0,28.4,0,55.8,0,29.4,0,27.6,0
2004/8/1 17:45,27.3,0,92,0,28.6,0,56.6,0,29.4,0,27.6,0
2004/8/1 18:00,27.7,0,90,0,28.7,0,57.4,0,29.5,0,27.6,0
2004/8/1 18:15,27.5,0,89,0,28.8,0,58.8,0,29.5,0,27.6,0
2004/8/1 18:30,27.4,0,90,0,28.6,0,56.4,0,29.5,0,27.6,0
2004/8/1 18:45,27.4,0,89,0,28.4,0,54.5,0,29.5,0,27.6,0
2004/8/1 19:00,27.3,0,89,0,28.2,0,52.9,0,29.5,0,27.6,0
2004/8/1 19:15,27,0,91,0,28.1,0,52.8,0,29.5,0,27.6,0
2004/8/1 19:30,27.1,0,92,0,28.2,0,55,0,29.5,0,27.6,0
2004/8/1 19:45,27.1,0,91,0,28.3,0,56.9,0,29.5,0,27.6,0
2004/8/1 20:00,26.9,0,93,0,28.3,0,57.5,0,29.5,0,27.6,0
2004/8/1 20:15,26.9,0,94,0,28.2,0,58,0,29.5,0,27.7,0
2004/8/1 20:30,26.8,0,95,0,28.3,0,58.5,0,29.5,0,27.5,0
2004/8/1 20:45,26.8,0,95,0,28.3,0,59.9,0,29.5,0,27.5,0
2004/8/1 21:00,26.7,0,94,0,28.2,0,59,0,29.5,0,27.5,0
2004/8/1 21:15,26.6,0,95,0,28.2,0,58,0,29.4,0,27.5,0
2004/8/1 21:30,26.6,0,95,0,28.3,0,59.1,0,29.4,0,27.6,0
2004/8/1 21:45,26.5,0,94,0,28.3,0,59.7,0,29.4,0,27.6,0
2004/8/1 22:00,26.6,0,94,0,28.4,0,59.9,0,29.4,0,27.6,0
2004/8/1 22:15,26.5,0,94,0,28.4,0,59.5,0,29.3,0,27.6,0
2004/8/1 22:30,26.4,0,95,0,28.3,0,59.6,0,29.3,0,27.2,0
2004/8/1 22:45,26.3,0,95,0,28.4,0,60.3,0,29.3,0,27.3,0
2004/8/1 23:00,26.3,0,95,0,28.4,0,60,0,29.3,0,27.3,0
2004/8/1 23:15,26.3,0,96,0,28.4,0,60,0,29.2,0,27.2,0
2004/8/1 23:30,26.3,0,95,0,28.4,0,61.4,0,29.2,0,27.2,0
2004/8/1 23:45,26.4,0,94,0,28.4,0,61.7,0,29.1,0,27.2,0
2004/8/2 0:00,26.3,0,93,0,28.3,0,60.1,0,29.1,0,27.5,0
2004/8/2 0:15,26.4,0,94,0,28.5,0,60.3,0,29.1,0,27.5,0
2004/8/2 0:30,26.6,0,92,0,28.6,0,60.3,0,29.1,0,27.5,0
2004/8/2 0:45,26.8,0,90,0,28.6,0,61,0,29.1,0,27.5,0
2004/8/2 0:59,26.8,0,92,0,28.7,0,61.3,0,29,0,27.5,0
2004/8/2 1:14,26.8,0,93,0,28.7,0,61.3,0,29,0,27.5,0
2004/8/2 1:29,26.7,0,94,0,28.7,0,61.6,0,28.9,0,27.4,0
2004/8/2 1:44,26.7,0,95,0,28.8,0,61.7,0,28.9,0,27.4,0
2004/8/2 1:59,26.7,0,96,0,28.8,0,62.2,0,28.9,0,27.4,0
2004/8/2 2:14,26.7,0,96,0,28.8,0,62.5,0,28.9,0,27.4,0
2004/8/2 2:29,26.7,0,96,0,28.8,0,62.6,0,28.9,0,27.4,0
2004/8/2 2:44,26.6,0,95,0,28.9,0,62.6,0,28.9,0,27.4,0
2004/8/2 2:59,26.6,0,96,0,28.9,0,62.3,0,28.9,0,27.4,0
2004/8/2 3:14,26.6,0,97,0,28.9,0,62.2,0,28.9,0,27.5,0
2004/8/2 3:29,26.5,0,97,0,28.9,0,62.2,0,28.9,0,27.5,0
2004/8/2 3:44,26.6,0,97,0,28.9,0,62.2,0,28.9,0,27.5,0
2004/8/2 3:59,26.5,0,98,0,28.9,0,62.3,0,28.9,0,27.5,0
2004/8/2 4:14,26.6,0,98,0,28.9,0,62.2,0,28.9,0,27.5,0
2004/8/2 4:29,26.6,0,98,0,28.9,0,62,0,28.9,0,27.5,0
2004/8/2 4:44,26.6,0,98,0,28.9,0,61.9,0,28.9,0,27.5,0
2004/8/2 4:59,26.6,0,99,0,29,0,62,0,28.9,0,27.5,0
2004/8/2 5:14,26.5,0,99,0,29,0,62,0,28.9,0,27.5,0
2004/8/2 5:29,26.6,0,98,0,29,0,62.1,0,28.9,0,27.5,0
2004/8/2 5:44,26.5,0,99,0,29,0,62.1,0,28.9,0,27.6,0
2004/8/2 5:59,26.5,0,99,0,29,0,61.9,0,28.9,0,27.6,0
2004/8/2 6:14,26.6,0,98,0,29,0,61.9,0,28.8,0,27.6,0
2004/8/2 6:29,26.7,0,96,0,29,0,62.2,0,28.8,0,27.6,0
2004/8/2 6:44,26.7,0,95,0,29,0,62.3,0,28.8,0,27.6,0
2004/8/2 6:59,26.8,0,96,0,29.1,0,62.4,0,28.8,0,27.6,0
2004/8/2 7:14,27.1,0,94,0,29.1,0,62.4,0,28.8,0,27.6,0
2004/8/2 7:29,27.5,0,89,0,29.2,0,62.9,0,28.8,0,27.6,0
2004/8/2 7:44,27.9,0,88,0,29.2,0,63.5,0,28.8,0,27.7,0
2004/8/2 7:59,28.6,0,85,0,29.3,0,63.3,0,28.8,0,27.7,0
2004/8/2 8:14,29.2,0,81,0,29.4,0,63,0,28.9,0,27.3,0
2004/8/2 8:29,29.5,0,80,0,29.4,0,62.6,0,28.9,0,27.3,0
2004/8/2 8:44,29.8,0,77,0,29.4,0,62.7,0,28.9,0,27.3,0
2004/8/2 8:59,30,0,75,0,29.5,0,62.5,0,28.9,0,27.3,0
2004/8/2 9:14,30.2,0,73,0,29.5,0,62.3,0,29,0,27.4,0
2004/8/2 9:29,30.2,0,72,0,29.5,0,62.2,0,29,0,27.4,0
2004/8/2 9:44,30.8,0,70,0,29.6,0,62.1,0,29.1,0,27.4,0
2004/8/2 9:59,31.1,0,67,0,29.6,0,61.9,0,29.1,0,27.4,0
2004/8/2 10:14,31.4,0,66,0,29.7,0,61.8,0,29.2,0,27.4,0
2004/8/2 10:29,31.6,0,68,0,29.8,0,61.7,0,29.3,0,27.4,0
2004/8/2 10:44,31.7,0,66,0,29.8,0,61.5,0,29.3,0,27.5,0
2004/8/2 10:59,31.9,0,67,0,29.8,0,61.4,0,29.4,0,27.5,0
2004/8/2 11:14,32.5,0,62,0,29.9,0,61.4,0,29.5,0,27.5,0
2004/8/2 11:29,32.9,0,60,0,30,0,61.2,0,29.6,0,27.5,0
2004/8/2 11:44,33.6,0,59,0,30.1,0,61.2,0,29.7,0,27.5,0
2004/8/2 11:59,34,0,57,0,30.2,0,61.1,0,29.8,0,27.5,0
2004/8/2 12:14,34.4,0,56,0,30.3,0,61.1,0,29.9,0,27.5,0
2004/8/2 12:29,33.7,0,58,0,30.4,0,61.1,0,30.1,0,27.6,0
2004/8/2 12:44,33.6,0,58,0,30.4,0,60.9,0,30.2,0,27.6,0
2004/8/2 12:59,33.8,0,57,0,30.5,0,60.9,0,30.4,0,27.6,0
2004/8/2 13:14,32.4,0,68,0,30.5,0,60.9,0,30.5,0,27.6,0
2004/8/2 13:29,32.2,0,67,0,30.5,0,60.9,0,30.6,0,27.6,0
2004/8/2 13:44,31.5,0,68,0,30.5,0,60.9,0,30.8,0,27.7,0
2004/8/2 13:59,30.5,0,76,0,30.6,0,61.1,0,30.8,0,27.7,0
2004/8/2 14:14,28.5,0,87,0,30.6,0,61.3,0,30.9,0,27.7,0
2004/8/2 14:29,27.2,0,99,0,30.5,0,61.3,0,30.9,0,27.7,0
2004/8/2 14:44,27.2,0,99,0,30.5,0,61.8,0,30.9,0,27.7,0
2004/8/2 14:59,27.1,0,99,0,30.5,0,62,0,30.9,0,27.8,0
2004/8/2 15:14,26.3,0,95,0,30.5,0,61.9,0,30.9,0,27.8,0
2004/8/2 15:29,26.5,0,89,0,30.5,0,61.8,0,30.9,0,27.8,0
2004/8/2 15:44,26.2,0,93,0,30.4,0,61.3,0,30.9,0,27.8,0
2004/8/2 15:59,26.2,0,97,0,30.4,0,61.4,0,30.9,0,27.9,0
2004/8/2 16:14,26.2,0,99,0,30.4,0,61.6,0,30.8,0,27.9,0
2004/8/2 16:29,26.2,0,99,0,30.4,0,61.7,0,30.8,0,27.9,0
2004/8/2 16:44,26.1,0,99,0,30.4,0,61.8,0,30.8,0,27.4,0
2004/8/2 16:59,26.2,0,99,0,30.4,0,62,0,30.7,0,27.4,0
2004/8/2 17:14,25.9,0,99,0,30.4,0,62.1,0,30.7,0,27.5,0
2004/8/2 17:29,25.8,0,99,0,30.3,0,62.1,0,30.7,0,27.5,0
2004/8/2 17:44,25.3,0,99,0,30.3,0,62.2,0,30.6,0,27.5,0
2004/8/2 17:59,25,0,99,0,30.3,0,62.3,0,30.6,0,27.5,0
2004/8/2 18:14,25,0,99,0,30.2,0,62.3,0,30.6,0,27.3,0
2004/8/2 18:29,25.1,0,99,0,30.2,0,62.2,0,30.5,0,27.3,0
2004/8/2 18:44,25,0,99,0,30.2,0,62.1,0,30.5,0,27.3,0
2004/8/2 18:59,25,0,99,0,30.2,0,62.1,0,30.4,0,27.3,0
2004/8/2 19:14,25.1,0,99,0,30.2,0,62.3,0,30.3,0,27.3,0
2004/8/2 19:29,25,0,99,0,30.3,0,62,0,30.3,0,27.4,0
2004/8/2 19:44,25,0,98,0,30.2,0,62.2,0,30.3,0,27.3,0
2004/8/2 19:59,25.1,0,97,0,30.2,0,62.4,0,30.2,0,27.3,0
2004/8/2 20:14,25.2,0,92,0,29.8,0,58.9,0,30.2,0,27.3,0
2004/8/2 20:29,25.1,0,93,0,29.5,0,55.1,0,30.2,0,27.4,0
2004/8/2 20:44,25.2,0,91,0,29.2,0,53.1,0,30.1,0,27.4,0
2004/8/2 20:59,25.2,0,88,0,29.2,0,53.9,0,30.1,0,27.4,0
2004/8/2 21:14,25.1,0,92,0,29.2,0,55.3,0,30,0,27.4,0
2004/8/2 21:29,25.1,0,91,0,29.1,0,55.3,0,30,0,27.4,0
2004/8/2 21:44,25,0,90,0,28.8,0,53.8,0,29.9,0,27.4,0
2004/8/2 21:59,25.1,0,92,0,28.9,0,54.7,0,29.9,0,27.5,0
2004/8/2 22:14,25.1,0,92,0,28.9,0,56,0,29.8,0,27.5,0
2004/8/2 22:29,25,0,91,0,28.8,0,56.6,0,29.8,0,27.5,0
2004/8/2 22:44,24.9,0,91,0,28.8,0,56.9,0,29.8,0,27.5,0
2004/8/2 22:59,24.9,0,93,0,28.7,0,57.5,0,29.7,0,27.5,0
2004/8/2 23:14,25.1,0,91,0,28.8,0,57.7,0,29.7,0,27.5,0
2004/8/2 23:29,25.3,0,89,0,28.7,0,57.5,0,29.6,0,27.5,0
2004/8/2 23:44,25.4,0,87,0,28.7,0,57.5,0,29.6,0,27.6,0
2004/8/2 23:59,25.2,0,89,0,28.7,0,58,0,29.6,0,27.6,0
2004/8/3 0:14,25.1,0,89,0,28.7,0,58.7,0,29.6,0,27.6,0
2004/8/3 0:29,25,0,89,0,28.7,0,58.4,0,29.5,0,27.3,0
2004/8/3 0:44,25,0,89,0,28.7,0,58.4,0,29.5,0,27.3,0
2004/8/3 0:59,24.9,0,89,0,28.7,0,58.3,0,29.5,0,27.3,0
2004/8/3 1:14,24.8,0,91,0,28.8,0,58.4,0,29.4,0,27.3,0
2004/8/3 1:29,24.7,0,91,0,28.8,0,58.7,0,29.4,0,27.4,0
2004/8/3 1:44,24.6,0,92,0,28.8,0,59.2,0,29.4,0,27.1,0
2004/8/3 1:59,24.5,0,93,0,28.8,0,59.2,0,29.3,0,27.1,0
2004/8/3 2:14,24.4,0,93,0,28.9,0,59.5,0,29.3,0,27.1,0
2004/8/3 2:29,24.3,0,92,0,28.9,0,60.1,0,29.3,0,27.1,0
2004/8/3 2:44,24.3,0,91,0,28.9,0,60.3,0,29.3,0,26.9,0
2004/8/3 2:59,24.3,0,91,0,28.9,0,60.5,0,29.2,0,27,0
2004/8/3 3:14,24.3,0,91,0,28.9,0,60.6,0,29.2,0,27,0
2004/8/3 3:29,24.3,0,91,0,28.9,0,60.7,0,29.2,0,27,0
2004/8/3 3:44,24.3,0,89,0,28.9,0,60.9,0,29.1,0,27,0
2004/8/3 3:59,24.3,0,89,0,28.9,0,61,0,29.1,0,27,0
2004/8/3 4:14,24.3,0,89,0,28.9,0,61,0,29.1,0,27,0
2004/8/3 4:29,24.4,0,88,0,28.9,0,60.9,0,29.1,0,27,0
2004/8/3 4:44,24.4,0,88,0,28.9,0,60.9,0,29.1,0,27,0
2004/8/3 4:59,24.4,0,88,0,28.9,0,61,0,29,0,27.1,0
2004/8/3 5:14,24.4,0,87,0,28.8,0,61.1,0,29,0,27.1,0
2004/8/3 5:29,24.4,0,87,0,28.8,0,61.1,0,28.9,0,26.8,0
2004/8/3 5:44,24.4,0,87,0,28.8,0,61.1,0,28.9,0,26.8,0
2004/8/3 5:59,24.4,0,87,0,28.8,0,61,0,28.9,0,27.5,0
2004/8/3 6:14,24.5,0,86,0,28.8,0,61,0,28.9,0,27.5,0
2004/8/3 6:29,24.7,0,85,0,28.8,0,60.9,0,28.8,0,27.5,0
2004/8/3 6:44,25.1,0,83,0,28.8,0,60.8,0,28.8,0,27.5,0
2004/8/3 6:59,25.3,0,82,0,28.9,0,60.7,0,28.8,0,27.5,0
2004/8/3 7:14,25.6,0,80,0,29,0,60.7,0,28.8,0,27.5,0
2004/8/3 7:29,26.1,0,80,0,29.1,0,60.5,0,28.8,0,27.5,0
2004/8/3 7:44,26.6,0,77,0,29.1,0,60.5,0,28.8,0,27.5,0
2004/8/3 7:59,27,0,77,0,29.2,0,60.3,0,28.8,0,27.5,0
2004/8/3 8:14,27.3,0,76,0,29.3,0,60.3,0,28.8,0,27.1,0
2004/8/3 8:29,27.7,0,75,0,29.4,0,60.1,0,28.8,0,27.1,0
2004/8/3 8:44,28.3,0,73,0,29.4,0,59.9,0,28.9,0,27.1,0
2004/8/3 8:59,28.7,0,70,0,29.5,0,59.7,0,28.9,0,27.1,0
2004/8/3 9:14,29.2,0,68,0,29.6,0,59.6,0,28.9,0,27.1,0
2004/8/3 9:29,29.6,0,66,0,29.7,0,59.5,0,29,0,27.1,0
2004/8/3 9:44,29.9,0,66,0,29.7,0,59.3,0,29.1,0,27.1,0
2004/8/3 9:59,30.3,0,63,0,29.8,0,59.3,0,29.1,0,27.1,0
2004/8/3 10:14,30.7,0,63,0,29.8,0,59.3,0,29.2,0,27.1,0
2004/8/3 10:29,31.5,0,61,0,29.9,0,59.2,0,29.3,0,27.1,0
2004/8/3 10:44,31.8,0,58,0,30,0,59.2,0,29.4,0,27.1,0
2004/8/3 10:59,31.4,0,58,0,30,0,59.2,0,29.5,0,27.2,0
2004/8/3 11:14,31.6,0,57,0,30,0,59.1,0,29.6,0,27.2,0
2004/8/3 11:29,33,0,51,0,30.1,0,58.9,0,29.7,0,27.2,0
2004/8/3 11:44,33.6,0,49,0,30.1,0,58.8,0,29.8,0,27.2,0
2004/8/3 11:59,34,0,47,0,30.2,0,58.7,0,29.9,0,27.2,0
2004/8/3 12:14,34.4,0,47,0,30.3,0,58.6,0,30,0,27.2,0
2004/8/3 12:29,35,0,43,0,30.3,0,58.6,0,30.1,0,27.2,0
2004/8/3 12:44,34.9,0,44,0,30.4,0,58.5,0,30.2,0,27.2,0
2004/8/3 12:59,35.6,0,43,0,30.5,0,58.4,0,30.3,0,27.2,0
2004/8/3 13:14,35.8,0,41,0,30.6,0,58.3,0,30.5,0,27.3,0
2004/8/3 13:29,36.1,0,39,0,30.7,0,58.1,0,30.7,0,27.3,0
2004/8/3 13:44,36.6,0,38,0,30.8,0,58.1,0,30.8,0,27.3,0
2004/8/3 13:59,36.9,0,45,0,30.9,0,58,0,31,0,27.3,0
2004/8/3 14:14,36.1,0,47,0,31,0,58,0,31.2,0,27.3,0
2004/8/3 14:29,37,0,44,0,31.1,0,58,0,31.4,0,27.3,0
2004/8/3 14:44,37.8,0,43,0,31.2,0,58,0,31.5,0,27.4,0
2004/8/3 14:59,35.9,0,46,0,31.3,0,58.2,0,31.7,0,27,0
2004/8/3 15:14,37.1,0,45,0,31.4,0,58.2,0,31.9,0,27,0
2004/8/3 15:29,35.7,0,48,0,31.5,0,58.2,0,32.1,0,27.4,0
2004/8/3 15:44,35.2,0,50,0,31.7,0,58.1,0,32.2,0,27.4,0
2004/8/3 15:59,34.4,0,53,0,31.7,0,58.3,0,32.4,0,27.5,0
2004/8/3 16:14,33.7,0,55,0,31.7,0,58.6,0,32.5,0,27.5,0
2004/8/3 16:29,31.8,0,61,0,31.7,0,58.7,0,32.6,0,27.5,0
2004/8/3 16:44,32.2,0,60,0,31.7,0,58.8,0,32.7,0,27.5,0
2004/8/3 16:59,31.4,0,62,0,31.2,0,56,0,32.7,0,27.4,0
2004/8/3 17:14,31.2,0,63,0,30.7,0,51.9,0,32.7,0,27.4,0
2004/8/3 17:29,30.8,0,65,0,30.2,0,48.8,0,32.7,0,27.4,0
2004/8/3 17:44,31,0,63,0,29.8,0,46.8,0,32.8,0,27.5,0
2004/8/3 17:59,31,0,63,0,29.7,0,47.7,0,32.8,0,27.5,0
2004/8/3 18:14,30.6,0,65,0,29.6,0,48.7,0,32.8,0,27.5,0
2004/8/3 18:29,30.3,0,67,0,29.5,0,48.9,0,32.8,0,27.5,0
2004/8/3 18:44,30.2,0,67,0,29.4,0,49.1,0,32.7,0,27.6,0
2004/8/3 18:59,30,0,67,0,29.3,0,49.5,0,32.7,0,27.6,0
2004/8/3 19:14,29.7,0,69,0,29.3,0,49.2,0,32.7,0,27.6,0
2004/8/3 19:29,29.8,0,70,0,29.2,0,49.1,0,32.6,0,27.7,0
2004/8/3 19:44,29.7,0,71,0,29.1,0,49.9,0,32.6,0,27.7,0
2004/8/3 19:59,29.3,0,77,0,29.1,0,50.3,0,32.6,0,27.7,0
2004/8/3 20:14,29,0,79,0,29.2,0,51.6,0,32.5,0,27.7,0
2004/8/3 20:29,28.7,0,80,0,29.2,0,51.8,0,32.3,0,27.5,0
2004/8/3 20:44,28.2,0,83,0,29.1,0,51.3,0,32.2,0,27.4,0
2004/8/3 20:59,28.1,0,83,0,29,0,50.7,0,32,0,27.4,0
2004/8/3 21:14,28,0,83,0,28.9,0,50.4,0,31.8,0,27.4,0
2004/8/3 21:29,27.8,0,84,0,28.8,0,50.1,0,31.7,0,27.5,0
2004/8/3 21:44,27.8,0,83,0,28.8,0,50.1,0,31.5,0,27.5,0
2004/8/3 21:59,27.5,0,84,0,28.9,0,49.5,0,31.3,0,27.5,0
2004/8/3 22:14,27.4,0,84,0,28.9,0,49.8,0,31.1,0,27.3,0
2004/8/3 22:29,27.3,0,84,0,29,0,50.2,0,31,0,27.3,0
2004/8/3 22:44,27.1,0,85,0,29,0,49.9,0,30.8,0,27.3,0
2004/8/3 22:59,27.1,0,85,0,29,0,49.5,0,30.6,0,27.3,0
2004/8/3 23:14,26.9,0,85,0,28.9,0,50.1,0,30.5,0,27.3,0
2004/8/3 23:29,26.8,0,86,0,29,0,51.7,0,30.3,0,27.3,0
2004/8/3 23:44,26.7,0,86,0,28.8,0,52.3,0,30.1,0,27.3,0
2004/8/3 23:59,26.7,0,86,0,28.7,0,51.3,0,29.9,0,27.4,0
2004/8/4 0:14,26.6,0,86,0,29,0,51.8,0,30,0,27.3,0
2004/8/4 0:29,26.5,0,87,0,29.1,0,52.4,0,30,0,27.3,0
2004/8/4 0:44,26.4,0,87,0,29.2,0,53.2,0,29.9,0,27.3,0
2004/8/4 0:59,26.3,0,88,0,29.3,0,53.9,0,30,0,27.2,0
2004/8/4 1:14,26.1,0,89,0,29.4,0,54.6,0,30,0,27.2,0
2004/8/4 1:29,26,0,88,0,29.4,0,55.1,0,30,0,27.2,0
2004/8/4 1:44,25.8,0,89,0,29.5,0,55.5,0,30,0,27.2,0
2004/8/4 1:59,25.5,0,91,0,29.5,0,55.9,0,30.1,0,27.3,0
2004/8/4 2:14,25.6,0,89,0,29.5,0,56.3,0,30.1,0,27.3,0
2004/8/4 2:29,25.4,0,89,0,29.5,0,56.8,0,30.1,0,27.3,0
2004/8/4 2:44,25.2,0,88,0,29.5,0,56.3,0,30.1,0,27.3,0
2004/8/4 2:59,25.2,0,88,0,29,0,52.9,0,30,0,27.3,0
2004/8/4 3:14,25.1,0,88,0,28.8,0,51.3,0,30,0,27.4,0
2004/8/4 3:29,25,0,89,0,29,0,51.3,0,30,0,27.3,0
2004/8/4 3:44,25,0,88,0,29.2,0,52.3,0,30,0,27.3,0
2004/8/4 3:59,24.9,0,88,0,29.2,0,52.6,0,29.9,0,27.3,0
2004/8/4 4:14,24.8,0,89,0,29.2,0,52.5,0,29.9,0,27.3,0
2004/8/4 4:29,24.7,0,86,0,29.1,0,53.8,0,29.9,0,27.2,0
2004/8/4 4:44,24.8,0,86,0,29.1,0,54.9,0,29.8,0,27.2,0
2004/8/4 4:59,24.7,0,86,0,29.1,0,55.4,0,29.8,0,27.3,0
2004/8/4 5:14,24.7,0,85,0,29.1,0,56,0,29.8,0,27.3,0
2004/8/4 5:29,24.5,0,87,0,29.1,0,56.5,0,29.7,0,27.3,0
2004/8/4 5:44,24.5,0,88,0,29.1,0,56.8,0,29.7,0,27.3,0
2004/8/4 5:59,24.6,0,87,0,29.2,0,57,0,29.7,0,27.3,0
2004/8/4 6:14,24.6,0,86,0,29.2,0,57.2,0,29.6,0,27.3,0
2004/8/4 6:29,24.7,0,87,0,29.2,0,57.4,0,29.6,0,27.3,0
2004/8/4 6:44,24.9,0,87,0,29.2,0,57.6,0,29.6,0,27.3,0
2004/8/4 6:59,25,0,86,0,29.2,0,58,0,29.5,0,27.4,0
2004/8/4 7:14,25.1,0,85,0,29.3,0,58.2,0,29.5,0,27.4,0
2004/8/4 7:29,25.4,0,84,0,29.2,0,58.6,0,29.5,0,27.4,0
2004/8/4 7:44,25.5,0,84,0,29.2,0,59,0,29.4,0,27.4,0
2004/8/4 7:59,25.6,0,86,0,29.2,0,59.2,0,29.4,0,27.2,0
2004/8/4 8:14,25.8,0,87,0,29.3,0,59.3,0,29.4,0,27.2,0
2004/8/4 8:29,26.1,0,87,0,29.3,0,59.2,0,29.4,0,27.2,0
2004/8/4 8:44,26.4,0,86,0,29.3,0,59.4,0,29.4,0,27.2,0
2004/8/4 8:59,26.8,0,85,0,29.4,0,58.8,0,29.4,0,27.2,0
2004/8/4 9:14,27.3,0,79,0,29.1,0,55.9,0,29.3,0,27.1,0
2004/8/4 9:29,27.6,0,78,0,29,0,57,0,29.4,0,27.1,0
2004/8/4 9:44,28,0,76,0,28.9,0,57,0,29.4,0,27.1,0
2004/8/4 9:59,28.1,0,76,0,29.1,0,56.7,0,29.4,0,27.1,0
2004/8/4 10:14,28.1,0,76,0,29.1,0,57.1,0,29.4,0,27.2,0
2004/8/4 10:29,28.5,0,75,0,29.2,0,57.7,0,29.4,0,27.2,0
2004/8/4 10:44,28.9,0,73,0,29.2,0,58,0,29.4,0,27.2,0
2004/8/4 10:59,29.3,0,71,0,29.3,0,58.2,0,29.4,0,27.2,0
2004/8/4 11:14,29.2,0,72,0,29.3,0,58.4,0,29.4,0,27.2,0
2004/8/4 11:29,30.4,0,66,0,29.4,0,58.5,0,29.4,0,27.2,0
2004/8/4 11:44,31.3,0,64,0,29.4,0,58.5,0,29.5,0,27.2,0
2004/8/4 11:59,31.8,0,59,0,29.5,0,58.5,0,29.5,0,27.3,0
2004/8/4 12:14,32.2,0,59,0,29.6,0,58.4,0,29.6,0,27.3,0
2004/8/4 12:29,32.7,0,57,0,29.6,0,58.3,0,29.7,0,27.3,0
2004/8/4 12:44,33,0,60,0,29.7,0,58.3,0,29.8,0,27.3,0
2004/8/4 12:59,32,0,62,0,29.8,0,58.3,0,29.9,0,27.3,0
2004/8/4 13:14,32.2,0,60,0,29.8,0,58.3,0,30.1,0,27.3,0
2004/8/4 13:29,32.5,0,61,0,29.9,0,58.3,0,30.3,0,27.4,0
2004/8/4 13:44,32.8,0,60,0,30,0,58.3,0,30.5,0,27.3,0
2004/8/4 13:59,34,0,57,0,30.1,0,58.3,0,30.6,0,27.4,0
2004/8/4 14:14,32.7,0,60,0,30.2,0,58.3,0,30.8,0,27.4,0
2004/8/4 14:29,33,0,60,0,30.3,0,58.4,0,30.9,0,27.4,0
2004/8/4 14:44,35.6,0,51,0,30.4,0,58.3,0,31.1,0,27.5,0
2004/8/4 14:59,35.6,0,51,0,30.5,0,58.3,0,31.2,0,27.5,0
2004/8/4 15:14,34.1,0,55,0,30.6,0,58.4,0,31.4,0,27.5,0
2004/8/4 15:29,35.6,0,51,0,30.7,0,58.3,0,31.5,0,27.5,0
2004/8/4 15:44,34.1,0,55,0,30.8,0,58.3,0,31.7,0,27.5,0
2004/8/4 15:59,36.1,0,50,0,30.9,0,58.3,0,31.9,0,27.6,0
2004/8/4 16:14,34.1,0,55,0,31,0,58.2,0,32,0,27.5,0
2004/8/4 16:29,34.7,0,55,0,31,0,58.2,0,32.2,0,27.6,0
2004/8/4 16:44,34.4,0,54,0,31,0,58.3,0,32.3,0,27.6,0
2004/8/4 16:59,32.3,0,61,0,31.1,0,58.3,0,32.5,0,27.6,0
2004/8/4 17:14,31.2,0,74,0,31,0,58.5,0,32.6,0,27.7,0
2004/8/4 17:29,30,0,81,0,31,0,58.7,0,32.6,0,27.7,0
2004/8/4 17:44,29.4,0,82,0,31.1,0,59,0,32.6,0,27.7,0
2004/8/4 17:59,29.4,0,82,0,31,0,59.1,0,32.7,0,27.7,0
2004/8/4 18:14,29.7,0,81,0,31.1,0,59.4,0,32.7,0,27.8,0
2004/8/4 18:29,29.4,0,80,0,31.1,0,59.4,0,32.7,0,27.8,0
2004/8/4 18:44,29.3,0,82,0,31.1,0,59.5,0,32.7,0,27.8,0
2004/8/4 18:59,29.3,0,79,0,31,0,59.6,0,32.6,0,27.9,0
2004/8/4 19:14,28.6,0,83,0,31,0,59.8,0,32.6,0,27.9,0
2004/8/4 19:29,28.5,0,83,0,31,0,59.8,0,32.6,0,27.9,0
2004/8/4 19:44,28.4,0,82,0,31,0,59.8,0,32.6,0,27.9,0
2004/8/4 19:59,28.4,0,81,0,31,0,59.9,0,32.5,0,28,0
2004/8/4 20:14,28.3,0,81,0,31,0,59.8,0,32.5,0,28,0
2004/8/4 20:29,28.2,0,83,0,31,0,60.1,0,32.4,0,28,0
2004/8/4 20:44,27.9,0,84,0,31,0,60,0,32.4,0,28,0
2004/8/4 20:59,27.6,0,86,0,30.9,0,60,0,32.3,0,28.1,0
2004/8/4 21:14,27.4,0,86,0,31,0,60.3,0,32.3,0,28.1,0
2004/8/4 21:29,27.4,0,85,0,30.8,0,54.5,0,32.2,0,28.1,0
2004/8/4 21:44,27.4,0,85,0,30.2,0,51.5,0,32.2,0,28.1,0
2004/8/4 21:59,27.3,0,86,0,29.9,0,49.8,0,31.8,0,28.2,0
2004/8/4 22:14,27.2,0,86,0,29.7,0,48.3,0,31.3,0,28.2,0
2004/8/4 22:29,27,0,87,0,29.7,0,49.1,0,30.9,0,27.7,0
2004/8/4 22:44,27,0,87,0,29.6,0,49.2,0,30.8,0,27.7,0
2004/8/4 22:59,27,0,87,0,29.5,0,49,0,30.8,0,27.4,0
2004/8/4 23:14,27,0,87,0,29.4,0,48.9,0,30.7,0,27.4,0
2004/8/4 23:29,26.9,0,87,0,29.6,0,49.3,0,30.4,0,27.4,0
2004/8/4 23:44,26.5,0,89,0,29.5,0,50.5,0,30.2,0,27.4,0
2004/8/4 23:59,26.5,0,90,0,29.3,0,49.6,0,29.9,0,27.4,0
2004/8/5 0:14,26.5,0,90,0,29.1,0,47.5,0,29.8,0,27.5,0
2004/8/5 0:29,26.4,0,89,0,28.9,0,46.5,0,29.7,0,27.5,0
2004/8/5 0:44,26.3,0,90,0,28.9,0,48,0,29.7,0,27.5,0
2004/8/5 0:59,26.5,0,89,0,28.8,0,47.9,0,29.7,0,27.5,0
2004/8/5 1:14,26.5,0,88,0,28.7,0,48,0,29.6,0,27.5,0
2004/8/5 1:29,26.4,0,88,0,28.6,0,48.5,0,29.7,0,27.6,0
2004/8/5 1:44,26.4,0,89,0,28.5,0,48.7,0,29.7,0,27.6,0
2004/8/5 1:59,26.5,0,88,0,28.5,0,49,0,29.7,0,27.6,0
2004/8/5 2:14,26.5,0,88,0,28.4,0,49.8,0,29.8,0,27.6,0
2004/8/5 2:29,26.5,0,88,0,28.4,0,50.3,0,29.8,0,27.7,0
2004/8/5 2:44,26.7,0,87,0,28.4,0,51.5,0,29.8,0,27.4,0
2004/8/5 2:59,26.8,0,87,0,28.5,0,53.9,0,29.8,0,27.4,0
2004/8/5 3:14,26.7,0,87,0,28.5,0,54.7,0,29.8,0,27.4,0
2004/8/5 3:29,26.4,0,89,0,28.4,0,55.2,0,29.8,0,27.4,0
2004/8/5 3:44,26.3,0,90,0,28.6,0,55.3,0,29.7,0,27.4,0
2004/8/5 3:59,26.4,0,90,0,28.7,0,56.3,0,29.7,0,27.4,0
2004/8/5 4:14,26.3,0,90,0,28.8,0,57.1,0,29.7,0,27.4,0
2004/8/5 4:29,26.3,0,91,0,28.9,0,57.7,0,29.7,0,27.4,0
2004/8/5 4:44,26.3,0,90,0,28.9,0,57.8,0,29.6,0,27.3,0
2004/8/5 4:59,26.3,0,90,0,29,0,58.2,0,29.6,0,27.3,0
2004/8/5 5:14,26.4,0,89,0,29,0,58.2,0,29.5,0,27.3,0
2004/8/5 5:29,26.6,0,88,0,29,0,58.4,0,29.5,0,27.3,0
2004/8/5 5:44,26.6,0,87,0,29.1,0,58.6,0,29.4,0,27.3,0
2004/8/5 5:59,26.8,0,87,0,29.1,0,58.8,0,29.3,0,27.3,0
2004/8/5 6:14,26.8,0,86,0,29.1,0,58.8,0,29.3,0,27.3,0
2004/8/5 6:29,27,0,85,0,29.1,0,59.2,0,29.3,0,27.4,0
2004/8/5 6:44,27.2,0,85,0,29.2,0,59.9,0,29.2,0,27.4,0
2004/8/5 6:59,27.5,0,84,0,29.4,0,59.9,0,29.3,0,27.1,0
2004/8/5 7:14,27.8,0,82,0,29.1,0,55.9,0,29.3,0,27.1,0
2004/8/5 7:29,28.3,0,80,0,28.9,0,52.9,0,29.3,0,27.1,0
2004/8/5 7:44,28.8,0,77,0,28.8,0,51.1,0,29.4,0,27.1,0
2004/8/5 7:59,29,0,76,0,28.8,0,49.8,0,29.4,0,27.1,0
2004/8/5 8:14,29.2,0,75,0,28.8,0,50.7,0,29.5,0,27.1,0
2004/8/5 8:29,29.5,0,75,0,28.8,0,50.9,0,29.5,0,27.1,0
2004/8/5 8:44,29.9,0,74,0,28.9,0,50.9,0,29.6,0,27.1,0
2004/8/5 8:59,30.4,0,72,0,29.4,0,49.3,0,29.6,0,27.1,0
2004/8/5 9:14,30.8,0,71,0,29.1,0,50.3,0,29.7,0,27.1,0
2004/8/5 9:29,31.3,0,69,0,29,0,50.4,0,29.8,0,27.1,0
2004/8/5 9:44,31.1,0,69,0,28.9,0,50.3,0,29.9,0,27.1,0
2004/8/5 9:59,30.9,0,70,0,28.9,0,50.1,0,30,0,27.1,0
2004/8/5 10:14,30.8,0,71,0,29.2,0,49.1,0,30.1,0,27.2,0
2004/8/5 10:29,31.5,0,67,0,29.3,0,48.3,0,30.2,0,27.2,0
2004/8/5 10:44,31.5,0,65,0,29.1,0,48.5,0,30.2,0,27.2,0
2004/8/5 10:59,31.7,0,66,0,28.9,0,49.3,0,30.3,0,27.2,0
2004/8/5 11:14,32.2,0,63,0,28.8,0,49.5,0,30.4,0,27.2,0
2004/8/5 11:29,32.4,0,61,0,28.7,0,49.9,0,30.5,0,27.2,0
2004/8/5 11:44,32.6,0,61,0,28.7,0,49.6,0,30.6,0,27.1,0
2004/8/5 11:59,33.6,0,59,0,28.7,0,49.8,0,30.7,0,27.1,0
2004/8/5 12:14,33.9,0,59,0,28.7,0,49.8,0,30.8,0,27.1,0
2004/8/5 12:29,34.6,0,56,0,28.9,0,50.5,0,30.9,0,27.2,0
2004/8/5 12:44,35.1,0,56,0,28.8,0,50.6,0,31,0,27,0
2004/8/5 12:59,35,0,55,0,28.8,0,50.4,0,31.1,0,27,0